[[{"header":{"parameterUnit":"m.s-1","parameterCategory":1,"la1":30.2991,"la2":30.254,"lo1":-89.0895,"lo2":-89.0444,"dy":0.0017,"dx":0.0017,"nx":28,"ny":28,"refTime":"2023-08-16T09:00:00:Z","depth":0,"parameterNumber":2,"parameterNumberName":"U-component_of_WINDS"},"data":[0,0,0,0,0,0,0,0,0,0,0,0,0,0,0,0,0,0,0,0,0,0,0,0,0,0,0,0,0,0,0,0,0,0,0,0,0,0,0,0,0,0,0,0,0,0,0,0,0,0,0,0,0,0,0,0,0,0,4.9003,4.9004,0,4.9138,4.914,4.9141,4.9058,4.9054,4.905,4.9047,4.9184,4.9191,4.9198,0,0,0,0,0,0,0,0,0,0,0,0,0,4.867,4.8677,4.9003,4.9005,4.9006,4.9138,4.914,4.9141,4.9059,4.9054,4.9049,4.9045,4.9181,4.919,4.9199,0,0,0,0,0,0,0,0,0,0,0,0,0,4.8811,4.8679,4.9003,4.8981,4.898,4.9137,4.914,4.9142,4.906,4.9054,4.9048,4.9043,4.9179,4.9189,4.92,4.9385,0,0,4.9233,4.9238,0,0,0,0,0,0,0,0,4.8803,4.8823,4.8983,4.8983,4.8982,4.9075,4.9072,4.9224,4.9061,4.903,4.9047,4.904,4.9152,4.9165,4.9203,4.9392,4.9398,4.9234,4.9241,4.9246,4.9249,0,0,0,0,0,0,0,4.8793,4.8817,4.9056,4.8985,4.8985,4.8963,4.8977,4.9101,4.9122,4.9032,4.9026,4.9044,4.9151,4.9193,4.9206,4.94,4.9234,4.9244,4.9251,4.9255,4.9742,4.9748,0,0,0,0,0,0,4.8786,4.8809,4.9052,4.906,4.8876,4.8974,4.8989,4.9051,4.9121,4.9126,4.9048,4.9039,4.9177,4.9193,4.921,4.9429,4.9246,4.9256,4.9262,4.9736,4.9744,4.9751,0,0,0,0,0,0,4.8779,4.8808,4.9046,4.8933,4.8962,4.8986,4.9057,4.9057,4.9099,4.9133,4.9136,4.9087,4.9173,4.9195,4.9342,4.9432,4.9261,4.9271,4.9729,4.9738,4.9747,4.9869,0,0,0,0,0,0,4.877,4.8806,4.8878,4.8936,4.8968,4.9177,4.9062,4.9064,4.9118,4.9107,4.9171,4.9175,4.917,4.9326,4.9352,4.9444,4.9279,4.972,4.9733,4.9744,4.9857,4.9882,4.9903,0,0,0,0,0,4.8758,4.8908,4.8882,4.8912,4.9059,4.9182,4.9201,4.9192,4.9126,4.9197,4.9219,4.9173,4.9419,4.9341,4.9371,4.9468,4.9715,4.9729,4.9743,4.9847,4.9877,4.9902,0,0,0,0,0,0,4.886,4.8915,4.8887,4.906,4.9117,4.9168,4.9258,4.9225,4.9302,4.9289,4.9274,4.9289,4.9442,4.9469,4.9382,4.9648,4.9556,4.9577,4.9625,4.9653,4.9676,4.9665,4.9289,0,0,0,0,0,4.8903,4.9,4.9042,4.919,4.922,4.9235,4.9288,4.9276,4.9335,4.9358,4.9391,4.9449,4.9538,4.9598,4.9682,4.9861,4.9872,4.9942,4.9965,4.9983,5.0001,5.0094,5.0124,4.9798,4.9798,4.9797,0,0,4.8992,4.9034,4.9096,4.9212,4.9254,4.9353,4.9255,4.9365,4.9437,4.9375,4.9514,4.954,4.9604,4.9766,4.9839,4.9794,5.0093,5.0002,5.0016,5.0024,5.0111,5.0142,5.017,4.9808,4.9806,4.9804,0,0,4.9204,4.9247,4.9373,4.9418,4.9484,4.9492,4.9522,4.9578,4.9592,4.9732,4.9686,4.9772,4.9928,4.9974,5.0017,5.0244,5.0204,5.0272,5.0391,5.0481,5.0507,5.0529,5.0607,5.0636,5.029,5.029,5.029,0,4.9306,4.9454,4.9442,4.9554,4.9605,4.9553,4.9679,4.9723,4.9813,4.9849,4.9797,4.9989,5.0028,5.0199,5.0254,5.0292,5.0324,5.0264,5.0504,5.0527,5.0548,5.0622,5.0651,5.0298,5.0297,5.0296,5.0295,0,4.9575,4.9678,4.9772,4.9859,4.9921,5.004,5.0044,5.0108,5.009,5.0103,5.0244,5.029,5.0381,5.0421,5.0405,5.0589,5.0558,5.0506,5.0412,5.0587,5.0655,5.0684,5.0309,5.0306,5.0304,5.0302,0,0,4.9856,4.9933,4.9968,5.0005,5.0073,5.0151,5.0267,5.0356,5.0409,5.0473,5.0567,5.0699,5.065,5.0699,5.0688,5.0768,5.094,5.0706,5.0707,5.0745,5.1141,5.1178,5.1211,5.0915,5.092,5.0925,5.1135,0,5.0069,5.0271,5.0262,5.045,5.0543,5.0493,5.0593,5.0644,5.0659,5.0739,5.0755,5.0847,5.0778,5.0807,5.0884,5.0903,5.1019,5.0888,5.1,5.1004,5.0983,5.1248,5.1288,5.1484,5.1162,5.1166,5.117,0,5.0346,5.0417,5.0614,5.0665,5.0703,5.0794,5.0872,5.095,5.1006,5.1011,5.1066,5.1041,5.1155,5.106,5.1215,5.1126,5.1171,5.1188,5.1195,5.1203,5.1096,5.126,5.1546,5.1575,5.1213,5.1209,5.1206,0,5.0527,5.0673,5.0808,5.0842,5.0906,5.0969,5.0999,5.1049,5.1102,5.1171,5.1204,5.1286,5.133,5.1393,5.139,5.1321,5.1546,5.1452,5.1551,5.1551,5.1599,5.1596,5.1894,5.1633,5.1633,5.1632,5.1632,0,5.0765,5.0887,5.089,5.0973,5.1106,5.1095,5.1227,5.1249,5.1294,5.1379,5.1342,5.1422,5.1415,5.1495,5.1494,5.1621,5.1642,5.1647,5.1645,5.1649,5.1648,5.1677,5.1662,5.164,5.1639,5.1637,5.1636,0,5.099,5.0997,5.1141,5.1188,5.1203,5.1299,5.1338,5.1416,5.1427,5.1535,5.156,5.1576,5.1669,5.1672,5.178,5.1778,5.1932,5.1916,5.1913,5.1909,5.2007,5.1997,5.2332,5.2374,5.2089,5.2091,5.2094,0,5.114,5.1232,5.1289,5.1343,5.1375,5.1464,5.1517,5.1508,5.1565,5.1634,5.1703,5.1792,5.1862,5.2012,5.2033,5.2113,5.2097,5.2209,5.2109,5.2109,5.2095,5.2088,5.2096,5.2228,5.2231,5.2234,5.2236,0,5.1405,5.1403,5.1481,5.1561,5.1625,5.1687,5.1744,5.1791,5.1788,5.1853,5.1947,5.2002,5.211,5.2197,5.2275,5.2303,5.2269,5.2267,5.2294,5.2298,5.2291,5.2293,5.1963,5.2259,5.2257,5.2255,5.2254,5.2253,5.1595,5.1673,5.1724,5.1811,5.1853,5.1907,5.1981,5.2,5.2079,5.2165,5.2156,5.2259,5.231,5.241,5.2445,5.2525,5.2486,5.2526,5.2535,5.2544,5.2553,5.2281,5.2539,5.2538,5.2538,5.2537,5.2537,0,5.1855,5.1885,5.1966,5.2046,5.2114,5.2076,5.2136,5.2195,5.2287,5.2337,5.2407,5.2513,5.2597,5.2624,5.2705,5.2763,5.2749,5.2785,5.2779,5.2785,5.2585,5.2552,5.2794,5.2794,5.2794,5.2794,5.2794,5.2794,5.1998,5.2127,5.2131,5.2279,5.2308,5.2408,5.2446,5.2494,5.2534,5.2654,5.2723,5.274,5.278,5.2863,5.2938,5.2943,5.2973,5.3015,5.3014,5.2826,5.28,5.2775,5.2744,5.3022,5.3023,5.3207,5.3209,5.321]},{"header":{"parameterUnit":"m.s-1","parameterCategory":1,"la1":30.2991,"la2":30.254,"lo1":-89.0895,"lo2":-89.0444,"dy":0.0017,"dx":0.0017,"nx":28,"ny":28,"refTime":"2023-08-16T09:00:00:Z","depth":0,"parameterNumber":3,"parameterNumberName":"V-component_of_WINDS"},"data":[0,0,0,0,0,0,0,0,0,0,0,0,0,0,0,0,0,0,0,0,0,0,0,0,0,0,0,0,0,0,0,0,0,0,0,0,0,0,0,0,0,0,0,0,0,0,0,0,0,0,0,0,0,0,0,0,0,0,2.3054,2.3054,0,2.3087,2.3087,2.3088,2.3052,2.3051,2.305,2.3048,2.3082,2.3084,2.3086,0,0,0,0,0,0,0,0,0,0,0,0,0,2.2959,2.2961,2.3054,2.3055,2.3055,2.3087,2.3087,2.3088,2.3053,2.3051,2.3049,2.3048,2.3081,2.3084,2.3086,0,0,0,0,0,0,0,0,0,0,0,0,0,2.2997,2.2962,2.3054,2.3041,2.304,2.3087,2.3087,2.3088,2.3053,2.3051,2.3049,2.3047,2.308,2.3083,2.3086,2.3147,0,0,2.3096,2.3098,0,0,0,0,0,0,0,0,2.2995,2.3001,2.3043,2.3042,2.3041,2.3063,2.3066,2.3108,2.3053,2.3048,2.3048,2.3046,2.3077,2.3081,2.3091,2.3148,2.315,2.3097,2.3099,2.31,2.3101,0,0,0,0,0,0,0,2.2992,2.2999,2.3067,2.3043,2.3043,2.3033,2.3036,2.3074,2.3074,2.3048,2.3046,2.305,2.3076,2.3088,2.3092,2.315,2.3097,2.3099,2.3101,2.3103,2.3256,2.3258,0,0,0,0,0,0,2.2991,2.2997,2.3066,2.3068,2.3013,2.3037,2.304,2.3058,2.3073,2.3073,2.3052,2.3049,2.3084,2.3088,2.3093,2.3162,2.31,2.3103,2.3105,2.3254,2.3256,2.3258,0,0,0,0,0,0,2.299,2.2998,2.3065,2.3032,2.304,2.304,2.3061,2.306,2.3072,2.3076,2.3076,2.3064,2.3082,2.3088,2.3133,2.3163,2.3104,2.3107,2.3251,2.3254,2.3257,2.3304,0,0,0,0,0,0,2.2987,2.2997,2.3021,2.3033,2.3042,2.3105,2.3063,2.3062,2.3077,2.3073,2.3087,2.3087,2.3081,2.3128,2.3136,2.3167,2.311,2.3248,2.3252,2.3256,2.33,2.3308,2.3316,0,0,0,0,0,2.2984,2.3034,2.3023,2.3031,2.3071,2.3107,2.3112,2.3104,2.308,2.3103,2.3105,2.3087,2.3159,2.3133,2.3142,2.3174,2.3246,2.3251,2.3256,2.3296,2.3306,2.3315,0,0,0,0,0,0,2.3027,2.3035,2.3023,2.3078,2.3092,2.3101,2.313,2.3116,2.3137,2.3132,2.3121,2.3124,2.3171,2.3177,2.3148,2.3231,2.3198,2.3205,2.3226,2.3236,2.3244,2.3241,2.3112,0,0,0,0,0,2.3042,2.3071,2.3077,2.3125,2.3132,2.313,2.3146,2.3138,2.3152,2.3157,2.3163,2.3177,2.3202,2.322,2.3243,2.33,2.3301,2.3326,2.3334,2.334,2.3346,2.3374,2.3384,2.3274,2.3274,2.3274,0,0,2.3075,2.3083,2.3103,2.3133,2.3143,2.3172,2.3135,2.3169,2.319,2.3163,2.3205,2.3209,2.3224,2.3274,2.3297,2.328,2.3377,2.3346,2.3352,2.3354,2.338,2.3391,2.34,2.3277,2.3277,2.3276,0,0,2.315,2.316,2.32,2.321,2.3225,2.3223,2.3232,2.3243,2.3244,2.3286,2.3266,2.3291,2.3335,2.3346,2.3357,2.3433,2.3416,2.3441,2.3483,2.351,2.3519,2.3526,2.3552,2.3561,2.3447,2.3447,2.3447,0,2.319,2.3233,2.3222,2.3256,2.3269,2.3245,2.3284,2.3295,2.3317,2.3326,2.3308,2.3361,2.337,2.3421,2.3439,2.345,2.3459,2.3439,2.3518,2.3526,2.3533,2.3557,2.3567,2.345,2.3449,2.3449,2.3449,0,2.3279,2.3309,2.334,2.336,2.3377,2.3414,2.3408,2.3426,2.3416,2.3415,2.3457,2.3466,2.349,2.3501,2.3493,2.3551,2.354,2.352,2.3487,2.3546,2.3568,2.3578,2.3454,2.3453,2.3452,2.3451,0,0,2.3384,2.3396,2.3407,2.3415,2.3429,2.3451,2.3486,2.3509,2.3523,2.3539,2.3567,2.3604,2.3584,2.3597,2.3589,2.3613,2.367,2.359,2.359,2.3603,2.3732,2.3747,2.3758,2.3659,2.3661,2.3662,2.3731,0,2.3458,2.3517,2.3507,2.3564,2.3591,2.3567,2.3596,2.3607,2.3607,2.3629,2.3628,2.3654,2.3628,2.3635,2.3658,2.3658,2.3696,2.3653,2.3683,2.3685,2.368,2.377,2.3785,2.385,2.3739,2.3741,2.3742,0,2.3552,2.3569,2.3629,2.3636,2.3646,2.3673,2.3692,2.3714,2.3725,2.3722,2.3735,2.3722,2.3755,2.3721,2.3765,2.3737,2.3748,2.375,2.3752,2.3754,2.3717,2.3773,2.387,2.3879,2.3756,2.3755,2.3754,0,2.362,2.3659,2.3698,2.3706,2.3716,2.3734,2.3739,2.3748,2.3762,2.3778,2.3786,2.3806,2.3817,2.3833,2.3824,2.3801,2.3869,2.3836,2.3868,2.3868,2.3883,2.3882,2.3983,2.3892,2.3892,2.3892,2.3892,0,2.3703,2.374,2.3729,2.3753,2.3793,2.3781,2.3821,2.3822,2.383,2.3854,2.3835,2.3857,2.3845,2.3867,2.386,2.3897,2.3902,2.3901,2.3898,2.3902,2.3902,2.3909,2.3904,2.3894,2.3894,2.3893,2.3893,0,2.3786,2.378,2.3822,2.3826,2.3828,2.3857,2.3861,2.3883,2.388,2.391,2.3916,2.3912,2.3936,2.3929,2.3956,2.3951,2.3997,2.399,2.3993,2.3991,2.4023,2.4019,2.4131,2.4144,2.4046,2.4047,2.4048,0,2.3839,2.3867,2.3873,2.3887,2.3893,2.3917,2.3929,2.3918,2.3932,2.3945,2.3965,2.3987,2.4004,2.4043,2.4042,2.4061,2.4054,2.4091,2.4056,2.4058,2.4052,2.405,2.4052,2.4098,2.4099,2.41,2.4101,0,2.3934,2.3928,2.3948,2.3965,2.3981,2.3995,2.4007,2.4019,2.4008,2.4025,2.4048,2.4061,2.4087,2.4108,2.4125,2.4129,2.4113,2.4112,2.412,2.4123,2.4123,2.4122,2.4011,2.4109,2.4108,2.4108,2.4107,2.4107,2.4002,2.4025,2.4032,2.4053,2.406,2.4071,2.4091,2.409,2.411,2.4129,2.4121,2.4148,2.4156,2.4177,2.4183,2.4203,2.4189,2.4201,2.4204,2.4207,2.421,2.4121,2.4206,2.4206,2.4206,2.4206,2.4205,0,2.4094,2.4097,2.4117,2.4133,2.4149,2.4131,2.4143,2.4158,2.4181,2.419,2.4206,2.4232,2.4252,2.4252,2.427,2.4286,2.4279,2.4291,2.4289,2.429,2.4223,2.4213,2.4297,2.4297,2.4297,2.4297,2.4297,2.4297,2.4144,2.418,2.4175,2.4214,2.4216,2.4241,2.4249,2.4258,2.4265,2.4294,2.4311,2.431,2.4315,2.4333,2.435,2.4349,2.4356,2.4371,2.4368,2.4304,2.4295,2.4287,2.4277,2.4373,2.4373,2.4433,2.4434,2.4434]}]]